Cecil Field, FL

2:18 AM EDT on June 26, 2017 (GMT -0400)
Cecil

Weather History for KVQQ - October, 2013

Change the Weather History Date:

Sunday, October 6, 2013

  Actual Average (KNIP) Record (KNIP)
Temperature  
Mean Temperature 76 °F -  
Max Temperature 87 °F 81 °F 91 °F (2002)
Min Temperature 66 °F 68 °F 59 °F (2014)
Cooling Degree Days 12    
Growing Degree Days 26 (Base 50)    
Moisture  
Dew Point 73 °F    
Average Humidity 100    
Maximum Humidity 100    
Minimum Humidity 100    
Precipitation  
Precipitation 0.00 in - - ()
Sea Level Pressure  
Sea Level Pressure 29.96 in    
Wind  
Wind Speed 1 mph (ESE)    
Max Wind Speed 12 mph    
Max Gust Speed -    
Visibility 6 miles    
Events Fog    
Averages and records for this station are not official NWS values.
T = Trace of Precipitation, MM = Missing Value Source: NWS Daily Summary

Daily Weather History Graph

Daily Weather History Graph

Search for Another Location

Airport or City:

Trip Planner

Search our weather history database for the weather conditions in past years. The results will help you decide how hot, cold, wet, or windy it might be!

Date:

Astronomy

Oct. 06, 2013 Rise Set
Actual Time 7:24 AM EDT 7:06 PM EDT
Civil Twilight 7:00 AM EDT 7:30 PM EDT
Nautical Twilight 6:32 AM EDT 7:58 PM EDT
Astronomical Twilight 6:04 AM EDT 8:26 PM EDT
Moon 8:57 AM EDT (10/6) 8:15 PM EDT (10/6)
Length of Visible Light 12h 30m
Length of Day
11h 42m
Waxing Crescent, 3% of the Moon is Illuminated
Oct 6
Waxing Crescent
Oct 11
First Quarter
Oct 18
Full
Oct 26
Last Quarter
Nov 3
New

Hourly Weather History & Observations

Time (EDT) Temp. Heat Index Dew Point Humidity Pressure Visibility Wind Dir Wind Speed Gust Speed Precip Events Conditions
12:15 AM 68.0 °F - 68.0 °F 100% 30.02 in 6.0 mi Calm Calm - N/A   Clear
12:35 AM 68.0 °F - 68.0 °F 100% 30.02 in 0.5 mi Calm Calm - N/A Fog Fog
12:55 AM 68.0 °F - 68.0 °F 100% 30.02 in 7.0 mi Calm Calm - N/A   Clear
1:15 AM 68.0 °F - 68.0 °F 100% 30.02 in 4.0 mi Calm Calm - N/A   Clear
1:35 AM 68.0 °F - 68.0 °F 100% 30.02 in 0.5 mi Calm Calm - N/A Fog Fog
1:55 AM 66.2 °F - 66.2 °F 100% 30.01 in 1.0 mi Calm Calm - N/A   Clear
2:15 AM 66.2 °F - 66.2 °F 100% 30.01 in 3.0 mi Calm Calm - N/A   Clear
2:35 AM 68.0 °F - 68.0 °F 100% 30.00 in 5.0 mi Calm Calm - N/A   Mostly Cloudy
2:55 AM 69.8 °F - 69.8 °F 100% 29.99 in 9.0 mi Calm Calm - N/A   Scattered Clouds
3:15 AM 68.0 °F - 68.0 °F 100% 29.98 in 6.0 mi Calm Calm - N/A   Clear
3:35 AM 68.0 °F - 68.0 °F 100% 29.98 in 1.0 mi Calm Calm - N/A   Mostly Cloudy
3:55 AM 68.0 °F - 68.0 °F 100% 29.98 in 7.0 mi Calm Calm - N/A   Mostly Cloudy
4:15 AM 68.0 °F - 68.0 °F 100% 29.97 in 7.0 mi Calm Calm - N/A   Partly Cloudy
4:35 AM 66.2 °F - 66.2 °F 100% 29.97 in 7.0 mi Calm Calm - N/A   Clear
4:55 AM 66.2 °F - 66.2 °F 100% 29.97 in 1.2 mi Calm Calm - N/A   Mostly Cloudy
5:15 AM 66.2 °F - 66.2 °F 100% 29.97 in 1.2 mi Calm Calm - N/A   Overcast
5:35 AM 66.2 °F - 66.2 °F 100% 29.97 in 0.2 mi Calm Calm - N/A Fog Fog
5:55 AM 66.2 °F - 66.2 °F 100% 29.97 in 0.2 mi Calm Calm - N/A Fog Fog
6:15 AM 66.2 °F - 66.2 °F 100% 29.98 in 0.2 mi Calm Calm - N/A Fog Fog
6:35 AM 66.2 °F - 66.2 °F 100% 29.98 in 0.5 mi Calm Calm - N/A Fog Fog
6:50 AM 66.2 °F - 66.2 °F 100% 29.98 in 0.5 mi Calm Calm - N/A   Overcast
7:50 AM 66.2 °F - 66.2 °F 100% 29.99 in 2.0 mi Calm Calm - N/A   Scattered Clouds
8:50 AM 69.8 °F - 69.8 °F 100% 29.99 in 7.0 mi Calm Calm - N/A   Scattered Clouds
9:50 AM 77.0 °F - 77.0 °F 100% 30.00 in 7.0 mi Variable 3.5 mph - N/A   Scattered Clouds
10:50 AM 82.4 °F 96.1 °F 82.4 °F 100% 30.00 in 7.0 mi East 6.9 mph - N/A   Scattered Clouds
11:50 AM 82.4 °F 96.1 °F 82.4 °F 100% 29.99 in 7.0 mi ESE 8.1 mph - N/A   Mostly Cloudy
12:50 PM 86.0 °F 111.5 °F 86.0 °F 100% 29.97 in 7.0 mi ESE 8.1 mph - N/A   Mostly Cloudy
1:50 PM 86.0 °F 111.5 °F 86.0 °F 100% 29.94 in 10.0 mi East 10.4 mph - N/A   Mostly Cloudy
2:50 PM 87.8 °F 120.2 °F 87.8 °F 100% 29.91 in 10.0 mi ENE 4.6 mph - N/A   Mostly Cloudy
3:50 PM 84.2 °F 103.5 °F 84.2 °F 100% 29.90 in 10.0 mi East 9.2 mph - N/A   Mostly Cloudy
4:50 PM 82.4 °F 96.1 °F 82.4 °F 100% 29.89 in 10.0 mi East 11.5 mph - N/A   Mostly Cloudy
5:50 PM - - - N/A% 29.89 in 10.0 mi Calm Calm - N/A   Scattered Clouds
6:50 PM - - - N/A% 29.89 in 10.0 mi Calm Calm - N/A   Partly Cloudy
7:50 PM - - - N/A% 29.90 in 10.0 mi ESE 5.8 mph - N/A   Clear
8:15 PM 77.0 °F - 77.0 °F 100% 29.91 in 10.0 mi ESE 4.6 mph - N/A   Clear
8:35 PM 77.0 °F - 77.0 °F 100% 29.90 in 10.0 mi East 3.5 mph - N/A   Clear
8:55 PM 77.0 °F - 77.0 °F 100% 29.91 in 10.0 mi ESE 4.6 mph - N/A   Clear
9:15 PM 77.0 °F - 77.0 °F 100% 29.90 in 10.0 mi ESE 4.6 mph - N/A   Clear
9:35 PM 77.0 °F - 77.0 °F 100% 29.91 in 10.0 mi Calm Calm - N/A   Clear
9:55 PM 75.2 °F - 75.2 °F 100% 29.91 in 10.0 mi SE 3.5 mph - N/A   Clear
10:15 PM 75.2 °F - 75.2 °F 100% 29.92 in 10.0 mi Calm Calm - N/A   Clear
10:35 PM 75.2 °F - 75.2 °F 100% 29.91 in 10.0 mi Calm Calm - N/A   Clear
10:55 PM 75.2 °F - 75.2 °F 100% 29.91 in 10.0 mi Calm Calm - N/A   Clear
11:15 PM 73.4 °F - 73.4 °F 100% 29.91 in 10.0 mi South 6.9 mph - N/A   Clear
11:35 PM 73.4 °F - 73.4 °F 100% 29.90 in 10.0 mi South 3.5 mph - N/A   Mostly Cloudy
11:55 PM 73.4 °F - 73.4 °F 100% 29.90 in 10.0 mi SE 3.5 mph - N/A   Partly Cloudy